Location: Waldport
(44.4270°N, 124.0680°W)
Time: 01:03:36
(UTC-07:00)

Cosmos 2278 Rocket - Pass Details

Date: 23 June 2018
Orbit: 840 x 847 km, 71.0° (Epoch: 18 July)

Event Time Altitude Azimuth Distance (km) Brightness Sun altitude
Exits shadow 22:00:27 - 166° (SSE) 2,851 4.4 -8.5°
Reaches altitude 10° 22:01:38 10° 161° (SSE) 2,458 4.1 -8.6°
Maximum altitude 22:06:23 29° 103° (ESE) 1,519 3.1 -9.2°
Drops below altitude 10° 22:11:10 10° 46° (NE) 2,476 4.7 -9.8°
Sets 22:13:54 0° 35° (NE) 3,417 5.5 -10.1°
